TimeEST,TemperatureF,Dew PointF,Humidity,Sea Level PressureIn,VisibilityMPH,Wind Direction,Wind SpeedMPH,Gust SpeedMPH,PrecipitationIn,Events,Conditions,WindDirDegrees,DateUTC
12:54 AM,46.0,30.9,56,30.36,10.0,Calm,Calm,-,N/A,,Clear,0,2012-11-11 05:54:00
1:54 AM,45.0,32.0,60,30.36,10.0,Calm,Calm,-,N/A,,Clear,0,2012-11-11 06:54:00
2:54 AM,42.1,33.1,70,30.37,10.0,Calm,Calm,-,N/A,,Clear,0,2012-11-11 07:54:00
3:54 AM,39.9,33.1,77,30.38,10.0,Calm,Calm,-,N/A,,Clear,0,2012-11-11 08:54:00
4:54 AM,39.0,32.0,76,30.39,10.0,Calm,Calm,-,N/A,,Clear,0,2012-11-11 09:54:00
5:54 AM,37.9,32.0,79,30.41,10.0,Calm,Calm,-,N/A,,Clear,0,2012-11-11 10:54:00
6:54 AM,37.0,32.0,82,30.43,10.0,Calm,Calm,-,N/A,,Clear,0,2012-11-11 11:54:00
7:54 AM,41.0,37.4,87,30.45,10.0,Calm,Calm,-,N/A,,Clear,0,2012-11-11 12:54:00
8:54 AM,50.0,37.4,62,30.47,10.0,SSW,3.5,-,N/A,,Clear,200,2012-11-11 13:54:00
9:54 AM,57.9,36.0,44,30.47,10.0,South,4.6,-,N/A,,Clear,190,2012-11-11 14:54:00
10:54 AM,62.1,37.0,39,30.46,10.0,South,4.6,-,N/A,,Clear,170,2012-11-11 15:54:00
11:54 AM,68.0,36.0,31,30.44,10.0,SSW,10.4,-,N/A,,Clear,200,2012-11-11 16:54:00
12:54 PM,71.6,32.0,23,30.41,10.0,South,12.7,18.4,N/A,,Clear,190,2012-11-11 17:54:00
1:54 PM,72.0,35.1,26,30.38,10.0,South,11.5,-,N/A,,Clear,170,2012-11-11 18:54:00
2:54 PM,71.1,36.0,28,30.38,10.0,SSW,11.5,-,N/A,,Clear,200,2012-11-11 19:54:00
3:54 PM,69.1,37.9,32,30.39,10.0,South,15.0,19.6,N/A,,Clear,190,2012-11-11 20:54:00
4:54 PM,63.0,39.0,41,30.40,10.0,South,5.8,-,N/A,,Clear,190,2012-11-11 21:54:00
5:54 PM,57.9,39.0,49,30.43,10.0,Calm,Calm,-,N/A,,Clear,0,2012-11-11 22:54:00
6:54 PM,54.0,39.9,59,30.43,10.0,Calm,Calm,-,N/A,,Clear,0,2012-11-11 23:54:00
7:54 PM,54.0,43.0,66,30.44,10.0,South,3.5,-,N/A,,Clear,190,2012-11-12 00:54:00
8:54 PM,57.0,45.0,64,30.43,10.0,South,8.1,-,N/A,,Clear,190,2012-11-12 01:54:00
9:54 PM,55.0,46.0,72,30.43,10.0,South,5.8,-,N/A,,Clear,190,2012-11-12 02:54:00
10:54 PM,53.1,46.9,80,30.43,10.0,South,5.8,-,N/A,,Clear,190,2012-11-12 03:54:00
11:54 PM,53.1,48.0,83,30.41,10.0,South,5.8,-,N/A,,Clear,190,2012-11-12 04:54:00